Location: Ku?niki
(51.4449°N, 17.8974°E)
Time: 01:35:44
(UTC+00:00)

ATLAS 2AS CENTAUR R/B - Pass Details

Date: 18 September 2020
Orbit: 939 x 1273 km, 63.7° (Epoch: 19 October)

Event Time Altitude Azimuth Distance (km) Brightness Sun altitude
Rises 21:03:56 0° 229° (SW) 4,213 5.7 -33.2°
Enters shadow 21:04:48 - 230° (SW) 3,917 5.5 -33.2°
Exits shadow 21:11:56 45° 242° (WSW) 1,677 3.6 -33.8°
Maximum altitude 21:14:43 76° 317° (NW) 1,306 3.1 -34.0°
Drops below altitude 10° 21:22:33 10° 44° (NE) 3,200 5.4 -34.5°
Sets 21:25:17 0° 46° (NE) 4,133 6.0 -34.7°
